Theta_e
316 317 317 318 317 316 317 318 317 315 315 319 324 328 329 328 328 328 328 326 326 323 321 318 316 316 317 319 320 319 318 318 319 320 323 323 322 323 324 324 323 323 320 320 322 321 319 319 320 319 324 325 321 322 318 317 320 324 332 330 326 326 324 323 322 320 319 319 317 315 316 324 325 317 314 317 326 333 330 330 331 328 328 328 328 328 331 334
316 316 317 317 316 316 316 317 317 314 314 315 320 326 328 329 328 327 328 327 326 323 323 322 319 320 320 320 319 318 318 318 319 321 322 320 321 323 323 323 320 319 319 320 322 322 321 320 318 320 325 325 321 323 321 316 320 329 331 325 328 330 323 321 319 318 317 315 316 316 315 321 323 318 316 318 326 332 332 332 332 333 332 330 329 329 333 334
315 315 316 316 315 315 315 315 316 315 314 314 318 323 326 329 328 326 328 328 326 323 322 323 322 321 320 319 318 318 319 320 322 322 320 318 321 322 323 323 317 316 319 320 322 322 324 321 317 321 326 324 321 323 323 317 318 325 326 326 331 328 321 319 318 316 315 314 316 316 314 318 320 317 317 321 329 332 332 331 332 336 337 337 331 328 333 333
315 315 315 315 316 317 317 317 317 316 314 313 318 322 323 327 328 327 328 327 326 324 322 322 322 321 320 319 319 319 320 323 324 321 319 318 320 322 324 324 318 317 319 319 319 321 323 319 318 326 329 325 322 322 322 320 318 317 321 326 325 321 318 316 317 316 313 311 314 317 315 316 318 316 318 322 328 329 329 328 329 333 338 339 331 328 333 333
315 314 314 314 316 317 318 318 318 317 315 313 316 319 319 323 327 327 327 326 325 324 322 321 321 321 321 320 320 320 320 324 325 320 321 319 320 324 324 324 320 318 319 318 317 319 320 317 320 329 330 325 322 323 322 318 317 315 318 324 320 315 315 313 313 314 312 310 314 318 316 316 315 315 320 323 322 323 324 325 327 327 333 337 331 329 332 332
314 313 313 314 314 316 317 318 319 318 317 315 315 316 316 319 325 327 324 325 324 323 323 321 321 321 321 320 320 320 320 324 323 320 322 320 322 324 324 325 321 316 317 318 316 318 319 318 320 325 328 325 321 322 322 315 315 317 319 325 323 314 315 314 312 313 311 310 315 319 315 315 316 316 320 322 320 318 317 317 320 323 327 331 329 329 332 332
314 312 312 313 314 315 316 317 318 319 319 317 315 314 316 317 321 326 325 324 323 323 323 322 322 321 321 320 321 321 320 323 321 321 322 321 323 323 323 325 323 318 317 316 316 317 319 319 321 323 327 327 321 319 319 315 315 319 321 326 323 313 314 315 311 311 310 311 315 315 313 314 318 318 318 321 319 318 321 315 313 319 325 328 329 330 332 332
313 312 311 312 313 314 315 315 316 318 319 317 315 315 316 316 318 324 327 326 324 323 324 324 323 321 320 320 321 322 322 323 321 321 322 321 321 322 323 323 324 321 316 316 316 316 317 320 321 321 324 326 324 320 317 316 315 319 322 323 317 312 316 314 311 313 312 314 312 311 314 316 318 315 316 321 317 321 332 324 319 324 327 329 330 330 331 331
313 312 311 311 313 313 314 315 314 316 318 317 316 315 315 316 315 321 327 326 325 325 324 325 324 322 321 320 321 322 323 322 321 321 322 323 321 322 323 322 322 319 316 317 316 315 317 320 322 321 322 324 323 320 319 319 317 320 323 322 316 314 316 312 311 314 313 314 311 314 316 314 313 312 316 317 315 326 338 336 331 330 331 331 330 329 330 331
313 312 311 311 312 313 313 314 314 314 316 317 317 316 315 315 313 317 325 326 325 325 324 325 325 322 322 321 322 323 322 320 321 321 321 323 323 321 322 321 319 317 316 316 315 314 316 320 320 319 322 323 323 320 320 319 317 319 322 321 318 317 317 313 313 314 312 311 313 316 317 313 310 312 318 315 319 330 341 344 335 333 336 331 330 329 329 330
313 312 311 311 311 312 312 313 314 314 316 317 317 317 315 314 312 313 321 325 325 325 322 323 324 324 323 322 322 323 320 320 321 321 322 323 323 322 321 322 318 316 317 315 314 315 316 318 316 319 323 322 322 320 319 318 316 316 317 316 316 316 315 312 313 313 311 311 313 315 315 313 310 314 319 315 321 328 338 347 337 334 336 329 330 330 328 330
313 312 311 311 311 311 311 312 313 314 315 316 316 317 316 315 313 312 314 319 323 325 321 321 324 324 323 322 322 322 320 321 321 321 322 322 322 322 320 321 321 319 319 315 314 316 317 317 318 324 325 320 320 319 319 319 315 315 316 315 317 318 316 313 314 315 312 312 313 314 314 315 313 315 316 313 319 328 336 346 339 333 333 329 330 329 328 329
311 312 311 311 311 311 311 311 313 313 314 316 316 317 317 316 315 313 311 313 317 323 321 319 324 323 323 324 322 321 321 321 322 321 323 323 322 322 321 322 322 321 322 320 316 316 318 319 320 323 320 319 320 318 318 317 315 317 318 319 321 322 319 314 313 314 312 312 313 313 316 320 318 315 313 315 322 331 338 344 339 333 331 330 329 329 330 328
310 311 312 311 311 311 311 312 313 313 313 315 316 317 318 317 317 315 313 311 312 320 323 321 323 322 322 324 322 321 322 321 323 322 322 324 321 319 319 319 319 319 322 323 319 318 319 319 319 318 315 316 317 315 317 318 318 318 319 323 324 323 324 319 314 314 313 311 311 313 316 321 320 317 313 314 320 327 332 340 339 334 330 330 329 329 330 328
310 311 311 311 311 311 311 311 312 313 313 313 315 317 318 317 318 317 316 314 311 316 323 324 323 322 323 324 321 321 321 321 323 322 322 324 320 317 316 316 317 318 320 321 319 318 319 318 318 317 312 312 314 317 321 322 322 320 323 328 323 321 328 327 318 316 315 311 311 313 317 318 318 318 311 309 317 322 322 329 333 334 330 329 330 328 330 328
309 310 311 311 310 310 310 310 311 312 312 313 314 316 317 317 318 318 318 315 312 315 321 325 322 321 324 324 322 321 322 323 323 324 323 323 322 318 315 315 315 316 317 317 317 317 317 317 316 314 312 313 317 320 323 324 323 321 326 329 324 323 327 326 319 315 315 313 311 312 316 319 318 317 311 311 323 327 322 323 326 330 330 328 329 328 329 329
310 310 310 310 309 309 309 309 309 310 311 313 314 315 315 316 317 317 317 314 312 313 316 320 321 322 323 321 321 323 322 322 323 324 322 321 322 319 315 313 311 312 314 313 314 315 315 314 312 312 313 316 319 322 327 328 324 319 322 325 324 324 324 324 322 315 312 313 312 312 313 317 319 320 316 315 327 332 327 325 324 326 329 328 328 328 328 328
310 310 310 309 308 308 307 307 307 308 310 311 312 314 315 315 316 317 316 313 311 311 311 315 320 324 324 319 320 324 322 321 323 322 319 317 319 318 315 311 309 311 312 311 312 313 314 313 313 314 314 316 317 322 330 329 325 322 322 324 322 320 320 323 324 315 311 313 313 313 313 315 316 316 315 316 325 332 326 324 323 323 326 326 325 326 327 327
309 310 310 309 308 307 307 308 308 308 309 310 311 313 314 314 315 315 314 313 313 313 313 317 322 326 325 321 320 321 321 321 322 319 315 314 315 315 313 311 311 314 314 315 315 313 313 314 315 317 317 317 316 321 329 327 326 325 323 324 323 322 320 319 319 312 310 314 314 314 315 315 315 315 313 313 318 324 322 320 321 319 318 321 322 323 324 325
309 310 309 309 309 307 308 309 309 309 309 311 312 313 313 314 315 315 314 313 314 314 314 318 322 323 322 321 319 319 321 321 320 317 314 313 313 313 312 311 314 316 317 319 317 312 313 316 317 319 319 317 316 321 326 324 324 322 320 322 321 322 322 318 316 312 310 313 316 315 315 315 314 314 313 312 313 317 318 318 319 317 315 315 317 320 322 323
309 309 309 309 309 308 308 309 309 310 310 311 312 313 314 315 314 315 314 314 313 312 313 315 316 316 316 318 319 319 321 321 319 317 313 310 313 316 314 314 317 319 319 318 315 311 313 318 319 319 317 316 317 321 321 320 320 320 320 321 319 319 321 318 314 313 311 311 315 313 312 314 314 314 313 311 312 312 314 315 316 317 314 312 312 315 317 318
308 308 309 309 309 309 309 309 309 310 311 311 312 312 313 314 313 313 314 316 315 312 312 313 312 312 313 316 319 320 322 321 319 317 313 309 314 318 316 315 320 320 317 314 314 314 315 318 319 316 315 316 316 318 320 320 320 320 319 321 322 318 318 318 314 312 311 311 316 314 311 313 313 312 311 309 310 312 312 312 313 314 314 314 313 312 312 313
307 307 308 309 309 309 309 309 309 309 310 311 312 312 312 313 313 312 314 318 317 313 312 312 312 313 314 316 319 321 323 323 321 318 313 310 314 317 315 317 321 318 314 315 317 318 319 318 315 314 314 315 315 316 318 319 317 318 318 320 323 317 317 323 317 311 310 310 313 313 311 313 312 310 311 310 309 311 312 311 310 311 313 313 313 312 310 310
307 307 307 308 308 309 309 309 309 309 310 311 311 312 312 312 312 313 316 318 317 316 315 314 313 313 314 315 318 321 323 323 322 318 313 312 315 314 315 318 321 318 314 317 319 319 320 316 313 314 314 314 314 315 316 317 316 315 316 320 320 315 315 321 317 313 312 311 310 311 313 315 315 314 313 312 310 309 310 310 309 309 310 311 312 311 310 310
306 307 308 308 308 309 308 308 309 308 309 310 310 311 311 312 312 312 317 318 316 316 317 315 315 315 314 314 316 320 323 322 321 318 312 313 315 314 316 317 320 320 316 317 319 319 318 313 311 314 313 313 314 314 315 318 317 314 315 319 318 316 315 314 316 314 314 315 312 311 316 321 323 320 314 314 314 312 311 310 310 309 308 308 309 310 310 309
305 306 307 308 308 308 308 308 308 308 309 309 310 310 309 311 311 311 315 316 315 315 316 315 316 317 315 316 317 320 325 322 318 316 312 313 314 314 318 316 316 320 317 316 319 318 314 310 311 315 314 315 316 314 315 318 318 318 319 318 315 317 317 314 315 315 318 320 313 309 316 323 322 318 316 317 316 314 313 310 310 309 308 308 308 309 309 308
305 305 306 307 307 307 307 308 307 307 309 309 308 309 309 311 311 311 314 315 315 316 316 315 315 316 317 318 318 321 326 321 317 316 312 313 315 315 318 316 313 317 315 316 323 319 311 310 313 315 314 315 315 314 315 316 319 324 321 316 314 315 317 317 316 316 319 319 315 312 314 316 316 315 317 317 314 314 313 311 311 310 309 308 307 308 308 308
305 305 305 306 307 307 306 307 307 307 308 308 308 309 309 311 310 311 314 316 317 317 317 317 316 316 318 319 320 322 322 320 321 319 312 311 314 315 318 316 315 315 312 318 326 317 309 312 314 314 315 315 315 315 315 316 320 323 317 313 314 316 320 320 317 317 314 313 317 316 312 313 317 320 318 314 313 314 314 314 314 313 312 311 309 308 308 307
305 305 305 305 306 307 305 305 306 307 307 307 309 310 310 311 311 312 314 316 319 320 318 318 317 317 319 320 321 320 318 320 323 318 312 311 311 312 316 316 314 313 311 318 324 313 307 311 312 313 316 315 316 316 314 317 318 315 313 315 317 319 321 319 318 318 313 312 316 315 313 313 318 324 318 312 313 313 313 314 314 315 315 313 310 310 310 309
304 305 305 305 306 306 305 305 305 307 307 307 310 310 310 311 311 313 315 315 319 321 318 318 318 319 321 322 321 319 319 319 317 314 314 314 310 309 312 312 314 315 314 316 317 310 307 309 310 313 315 313 315 312 311 317 317 313 314 316 316 319 320 320 321 320 314 316 319 316 314 313 315 323 319 312 315 314 313 314 313 315 316 314 313 313 311 310
303 304 304 304 305 305 305 305 305 305 305 308 310 308 309 311 311 313 315 316 319 321 318 318 320 320 322 323 319 318 319 318 315 315 316 315 312 311 313 313 314 316 316 315 314 310 306 308 311 312 312 311 311 310 310 313 313 316 319 316 316 318 319 322 321 317 317 322 322 315 312 311 314 320 317 313 314 312 312 312 313 315 316 317 319 315 311 311
303 303 304 304 304 304 305 305 305 304 304 307 308 308 310 311 309 311 314 315 318 319 319 320 321 321 321 321 317 317 319 317 317 318 317 316 315 314 317 317 314 317 318 316 315 312 309 311 312 309 309 311 312 312 312 311 310 315 318 316 319 320 320 322 320 317 319 319 315 310 310 311 312 316 315 313 312 312 313 312 312 314 315 318 317 313 313 315
303 303 303 304 304 304 304 304 304 304 304 306 308 309 310 310 309 309 312 316 317 317 319 320 320 321 320 319 315 315 318 318 317 319 317 316 316 317 318 315 315 321 322 317 314 313 314 316 313 309 308 311 313 313 311 310 311 313 313 317 322 321 321 322 318 319 322 317 310 307 310 313 315 316 315 313 312 313 313 311 311 312 313 314 311 308 311 314
302 302 303 303 303 304 304 303 303 304 306 307 307 308 309 309 310 309 309 313 316 315 318 320 320 320 320 318 314 314 317 317 318 319 317 316 317 319 316 312 314 321 320 316 316 316 319 319 313 310 311 312 313 313 312 311 311 312 313 318 322 321 324 325 321 321 321 316 310 307 312 320 322 317 313 311 312 313 312 311 311 311 310 309 307 308 311 313
302 302 302 302 303 303 303 303 303 303 306 306 305 307 309 309 310 309 308 311 315 315 317 320 320 321 320 317 314 314 316 317 318 319 318 316 318 320 317 313 314 316 317 319 318 316 318 318 312 310 309 309 311 312 311 312 311 312 314 318 320 322 325 324 320 319 319 317 313 310 315 321 320 315 312 310 311 313 313 313 314 314 311 307 309 312 312 311
301 302 302 302 302 302 302 303 302 302 304 305 305 306 308 309 309 309 309 311 314 315 317 320 321 321 321 317 315 315 315 316 318 318 317 316 318 319 317 314 313 313 317 320 318 318 319 315 311 310 308 308 311 311 309 313 315 313 313 314 314 317 323 320 313 312 316 318 317 313 315 318 316 315 314 312 313 315 314 315 315 314 313 311 315 317 315 314
301 301 301 301 302 302 302 301 302 303 303 303 305 306 307 310 310 310 312 313 315 316 316 320 322 321 320 318 316 316 315 316 317 317 317 316 319 319 316 315 313 312 315 317 317 317 317 313 310 312 310 307 310 313 309 313 315 312 313 314 311 314 321 321 316 315 316 319 321 316 313 315 316 319 318 313 313 315 315 313 312 313 315 317 319 320 319 318
300 301 301 301 301 301 301 301 301 303 302 302 304 306 306 309 311 312 313 314 316 316 316 319 320 320 319 319 317 315 316 317 317 317 317 317 319 319 316 315 313 311 313 316 318 316 316 317 311 310 311 308 308 312 311 310 309 310 315 316 314 317 319 318 317 318 317 318 322 321 314 312 314 318 319 314 314 317 315 310 309 312 314 316 320 324 322 321
300 300 300 300 300 300 301 301 302 302 302 302 304 305 306 307 310 312 314 315 316 316 316 318 319 318 317 319 318 315 316 318 317 317 319 318 320 319 316 316 314 311 312 315 318 315 317 322 315 309 310 310 309 310 311 311 308 309 313 312 312 317 318 316 316 318 319 319 322 325 321 317 315 314 315 315 316 318 316 314 314 313 314 315 318 324 327 326
300 300 300 300 300 300 301 301 302 302 302 303 304 305 305 307 309 311 313 315 315 316 316 317 318 318 316 317 318 316 317 318 317 318 320 319 319 318 316 315 313 311 312 316 317 315 316 319 316 311 308 310 311 311 311 312 309 309 312 311 311 312 313 316 315 314 319 322 322 323 323 324 322 315 312 314 316 316 316 318 318 315 315 320 321 323 327 326
299 300 300 300 299 301 301 301 301 302 302 303 304 304 304 306 309 311 311 311 312 315 316 316 318 319 317 317 317 317 318 318 317 318 320 319 318 319 317 314 312 310 312 315 315 317 317 315 314 313 309 310 312 310 310 312 311 311 312 311 312 313 314 317 316 312 315 318 320 319 319 324 326 316 309 311 312 313 315 313 312 315 320 325 325 322 321 320
299 300 300 300 300 301 301 301 302 303 303 303 303 304 304 306 308 310 311 310 311 314 315 316 318 318 317 318 317 318 319 318 318 319 320 319 319 319 317 313 311 309 312 315 313 315 317 315 313 312 313 314 310 306 306 312 313 313 312 312 312 313 315 318 318 315 312 311 314 315 315 324 329 318 310 311 313 318 319 312 310 319 328 328 326 323 319 317
299 300 300 300 301 301 301 302 302 302 303 303 303 304 305 306 308 310 311 311 311 314 316 317 317 317 318 317 317 318 318 317 318 319 319 319 317 317 315 311 310 310 312 314 312 313 315 315 313 313 315 316 311 307 306 310 312 311 312 313 311 312 318 322 322 319 314 311 313 314 314 323 333 325 316 316 317 318 317 313 314 321 327 328 330 330 325 322
300 300 300 300 301 301 302 303 303 302 303 304 304 304 304 306 309 310 310 311 312 313 315 316 317 317 317 316 316 318 318 318 319 318 318 319 315 313 312 310 310 311 312 313 313 316 318 315 313 313 315 316 316 315 312 310 310 312 313 311 309 312 317 317 315 313 313 315 316 316 315 316 325 327 319 315 316 314 311 312 317 321 323 328 331 329 326 325
300 300 300 300 300 301 302 304 304 303 304 304 304 305 305 306 308 310 310 311 312 313 314 315 317 317 317 317 316 317 318 319 320 318 317 316 312 310 310 311 311 310 313 316 315 318 321 316 313 315 316 316 317 317 315 312 310 312 313 310 309 312 311 312 316 314 313 315 314 314 315 312 315 320 314 310 314 314 311 311 314 315 318 324 327 327 327 327
299 300 300 300 300 300 302 304 305 304 304 305 305 305 305 306 308 310 310 311 311 313 314 316 317 318 318 318 317 318 318 318 318 317 315 314 312 308 308 311 312 312 318 320 317 318 320 316 314 315 315 316 318 317 315 314 312 311 312 310 310 312 310 315 321 316 313 314 313 313 313 311 311 314 314 316 319 319 314 312 314 315 318 321 322 324 325 323
299 300 299 300 301 301 301 303 304 305 305 305 305 306 306 306 308 310 311 311 312 312 314 316 317 318 318 318 318 319 318 317 317 316 313 313 312 309 308 311 312 315 321 318 315 319 320 315 314 315 314 317 322 320 315 314 313 313 313 312 312 312 311 314 316 312 312 314 313 312 312 311 313 314 316 319 319 319 318 317 318 318 319 319 319 323 324 322
299 300 300 300 301 302 303 303 303 304 305 305 306 306 306 307 308 310 311 311 312 312 313 315 316 317 318 318 319 319 318 317 317 316 313 311 311 309 309 310 311 316 318 313 311 316 318 315 314 313 313 316 319 316 314 315 313 313 313 312 311 311 312 313 312 311 312 313 312 314 314 313 311 311 314 318 318 318 317 317 317 315 316 317 318 322 324 323
298 299 300 301 301 302 303 304 304 304 305 306 306 307 307 307 308 310 311 312 313 313 313 314 316 317 317 318 318 319 319 318 318 316 312 311 311 310 310 311 311 313 313 311 312 314 316 317 314 312 313 315 314 312 312 315 313 311 312 311 310 311 311 311 311 311 311 312 312 315 315 314 312 312 312 316 318 318 317 316 314 314 320 323 321 323 323 323
298 299 300 301 301 301 302 304 306 305 305 307 308 307 307 308 308 310 312 312 313 314 314 314 315 316 317 318 319 320 319 319 319 316 313 312 312 310 311 311 311 312 312 311 311 312 315 316 313 312 313 312 311 312 311 312 313 312 312 311 310 311 311 311 311 311 311 312 310 312 312 311 314 318 316 314 312 312 314 315 315 316 321 323 320 319 321 324
297 298 299 301 301 302 302 304 307 308 306 307 308 308 308 308 308 309 311 312 313 314 314 314 315 316 317 317 318 319 318 317 318 316 314 314 313 312 314 313 311 311 312 312 311 311 314 315 311 312 314 311 309 311 312 312 312 311 312 312 310 311 310 310 311 311 311 312 311 311 311 310 313 319 319 315 312 312 314 314 316 318 318 316 315 318 322 325
296 297 298 300 301 302 304 304 306 308 309 308 308 308 309 309 309 309 312 312 312 314 314 314 315 316 317 318 318 319 318 317 317 314 313 314 316 316 316 313 311 311 311 313 315 315 314 313 311 313 315 310 308 312 315 314 313 311 312 312 310 310 311 310 311 311 311 311 311 311 311 311 313 315 316 316 315 316 317 317 317 316 313 311 312 316 320 321
Wind_Speed
17 16 16 15 15 15 16 20 26 29 26 19 18 22 29 34 34 33 34 33 32 32 33 35 36 36 37 32 28 28 24 19 19 14 10 13 15 8 4 7 10 11 12 12 14 13 9 6 8 10 9 4 2 0 2 2 2 3 3 3 1 3 3 4 5 5 3 1 2 1 2 4 3 1 0 0 3 3 2 2 1 1 1 1 2 3 17 26
17 16 15 15 14 14 15 18 20 27 29 22 18 20 24 33 36 33 34 35 34 34 33 34 34 33 34 31 28 26 23 20 17 17 22 23 17 13 7 6 12 14 14 14 16 16 10 5 8 9 5 2 2 1 1 1 2 2 3 3 3 4 3 3 4 4 2 1 2 3 2 3 4 3 2 2 1 2 2 3 2 1 3 2 2 11 22 26
18 17 16 14 13 13 15 16 18 22 28 24 20 20 19 26 37 36 35 37 36 36 35 35 35 32 31 31 27 25 20 12 10 19 33 32 21 17 12 9 13 15 14 13 14 15 14 13 13 8 3 2 0 1 2 1 1 1 3 2 4 4 2 3 3 4 4 3 1 2 0 2 4 4 3 3 2 1 5 5 3 5 6 3 6 14 21 23
17 18 17 14 13 14 14 14 16 18 23 25 21 20 17 19 33 38 36 37 37 36 36 35 36 33 30 29 26 25 14 1 8 22 35 37 30 21 15 13 14 15 12 11 11 11 14 16 11 5 4 2 2 1 3 1 1 2 3 3 4 4 1 3 5 4 4 3 2 1 2 2 4 3 3 5 4 4 8 8 9 10 9 9 9 15 20 22
18 18 17 15 14 13 13 13 14 15 19 24 23 20 16 14 24 37 35 36 37 36 35 34 34 33 30 29 27 24 13 2 9 24 34 37 35 27 19 16 15 17 13 11 11 12 15 14 7 5 4 2 0 1 2 2 2 3 0 3 4 4 2 3 5 3 2 1 2 3 2 2 2 3 4 8 7 6 6 7 9 9 9 11 13 17 20 21
19 19 18 16 15 14 13 13 12 13 14 20 23 20 18 13 16 34 37 34 36 35 35 33 32 32 30 29 29 26 16 4 2 15 32 35 33 29 23 19 18 20 15 12 14 15 13 8 4 4 3 2 3 2 2 1 1 2 1 2 3 3 3 3 3 3 2 1 2 3 2 2 3 3 3 8 10 5 3 5 7 6 11 15 15 18 18 18
19 19 19 16 15 15 13 13 11 11 11 14 20 18 17 14 13 27 38 35 35 36 34 33 31 30 31 29 26 21 13 9 3 5 26 34 32 28 24 22 22 22 18 15 17 12 8 7 4 5 4 3 3 2 3 1 2 3 3 4 5 4 3 3 3 2 4 4 4 2 1 2 5 4 1 7 10 3 3 4 4 8 15 17 15 16 18 19
19 19 19 16 16 15 13 13 12 10 9 10 15 15 13 13 13 19 33 34 34 36 33 33 32 31 34 29 19 9 8 14 6 2 20 35 34 29 26 25 25 25 21 18 19 12 7 8 6 4 4 2 3 4 4 2 2 2 5 4 4 4 4 3 2 2 3 5 3 2 1 4 6 3 2 7 8 3 1 2 5 8 13 14 13 15 17 18
19 19 19 17 16 15 13 13 13 11 9 9 12 12 10 10 10 15 28 33 32 35 33 32 33 33 35 25 11 6 15 28 13 5 15 32 33 31 29 28 29 28 21 20 21 16 9 7 6 5 4 3 4 6 5 3 1 4 5 4 4 2 3 1 0 1 3 3 2 4 2 4 4 2 3 8 7 5 3 6 5 8 9 10 11 14 16 16
19 19 19 18 16 15 14 12 14 13 10 11 11 10 10 9 8 12 23 29 30 32 31 31 32 35 33 21 10 8 17 34 24 3 11 29 32 32 32 30 31 28 21 18 20 17 10 7 7 6 5 3 3 4 3 3 2 3 5 3 3 1 2 1 2 1 2 2 3 5 2 3 3 1 4 5 3 5 5 5 4 7 8 9 8 10 15 16
17 19 19 18 16 15 14 13 13 13 11 10 12 11 10 9 8 11 16 22 28 31 31 30 30 36 31 18 12 9 10 24 29 15 9 26 32 33 34 32 30 28 21 15 18 19 12 11 11 6 2 2 4 3 1 3 2 4 6 3 1 2 2 1 2 0 1 1 4 5 1 2 2 2 4 2 2 4 6 5 5 7 7 8 8 8 11 14
16 17 18 17 16 14 14 13 12 13 12 8 11 12 10 10 9 11 14 15 22 30 32 30 31 35 27 13 11 10 8 13 25 22 12 23 33 34 33 33 31 29 23 15 16 18 13 15 14 6 1 4 5 2 2 2 3 4 5 3 2 4 2 2 1 1 2 1 4 5 1 3 2 6 4 2 1 4 6 6 5 6 6 6 7 6 8 11
16 15 16 16 15 14 13 12 11 13 12 8 9 12 11 11 8 9 16 14 14 26 34 31 33 33 20 9 10 15 12 8 18 23 18 25 32 32 32 32 30 28 26 21 18 15 13 16 13 6 3 5 3 3 3 2 3 2 3 3 0 4 2 3 2 2 3 3 4 4 2 4 6 10 4 4 1 6 5 6 5 6 5 5 6 5 6 9
15 14 14 15 14 13 12 12 11 11 12 9 8 12 12 11 9 8 13 16 13 21 33 34 34 29 14 5 7 20 20 7 14 24 23 28 28 25 26 27 27 25 23 21 19 16 14 15 11 7 3 3 3 2 3 4 3 2 2 2 1 1 3 4 1 3 4 3 3 4 2 4 7 9 4 3 2 3 6 7 6 6 5 5 5 6 6 8
14 13 13 14 14 13 11 11 10 9 12 10 7 9 12 11 11 8 8 12 10 16 30 36 34 22 8 4 6 24 27 9 13 25 26 28 26 19 20 24 23 21 19 18 18 15 14 14 9 6 1 1 5 5 3 3 4 2 2 1 1 2 4 6 3 5 4 2 2 5 3 5 7 7 4 2 1 2 5 6 6 6 6 5 5 6 6 7
13 13 13 13 14 13 11 11 10 9 9 10 7 6 11 12 11 10 10 11 8 14 22 27 34 21 4 5 7 16 22 12 14 24 26 30 28 21 21 23 17 15 15 12 15 15 14 11 4 3 3 2 4 6 4 3 3 2 2 2 2 3 3 4 3 2 1 2 0 2 3 2 4 4 2 1 3 2 5 6 5 5 5 5 5 6 6 6
12 12 13 13 14 13 11 10 9 8 6 8 7 5 9 10 10 10 9 10 12 16 17 11 30 24 2 4 8 10 15 13 16 22 26 28 30 30 25 16 10 12 11 9 13 13 8 5 2 2 3 2 3 5 4 2 2 0 1 2 3 3 3 2 3 3 4 4 0 1 2 4 5 4 4 3 5 5 5 7 6 6 6 6 5 5 7 7
12 12 12 13 13 13 11 9 8 7 5 7 6 4 8 11 11 8 7 9 10 10 16 14 19 16 2 8 9 10 17 18 19 22 24 23 26 32 25 13 11 14 10 5 6 6 2 1 2 3 3 3 4 5 5 5 6 5 4 4 3 3 3 3 3 2 3 3 1 0 1 7 9 9 7 3 5 6 6 6 6 7 7 6 6 6 7 8
13 12 12 12 13 13 11 8 7 6 5 6 6 5 9 10 9 6 7 10 4 3 6 7 11 7 1 10 6 7 19 24 20 17 18 22 25 25 19 14 12 12 9 4 4 5 3 2 2 5 6 6 7 7 7 7 10 10 7 5 4 4 3 4 4 3 1 3 2 4 4 7 8 11 9 2 3 4 5 4 5 6 6 6 6 7 7 8
12 11 11 11 12 12 11 7 5 6 6 7 9 10 8 6 5 3 5 7 5 7 6 6 8 2 6 6 8 13 18 20 16 11 17 24 28 22 12 11 9 5 7 8 6 4 3 5 7 8 9 10 11 8 6 7 8 7 5 4 4 5 3 4 4 4 1 3 3 5 6 7 8 11 11 3 3 4 5 5 6 6 6 7 7 8 9 10
11 10 10 10 11 11 10 7 5 7 7 9 11 7 3 4 4 3 4 4 7 8 9 13 7 2 5 2 14 22 12 8 9 13 20 22 26 21 7 8 11 6 7 9 6 1 2 8 9 7 9 11 10 7 7 7 6 5 5 4 3 4 4 5 4 4 1 2 4 2 3 8 9 11 12 5 5 7 8 7 7 8 8 7 7 10 10 9
10 10 10 10 10 10 9 6 5 6 6 10 12 5 1 3 3 3 5 3 6 8 11 14 7 3 6 5 16 26 11 4 6 9 16 16 17 16 7 10 13 9 7 7 7 5 5 8 7 7 9 9 7 7 9 7 6 5 4 4 3 3 3 4 3 3 2 1 3 2 2 8 9 11 12 8 7 8 9 9 10 9 8 8 9 11 10 9
9 9 10 10 10 9 8 7 6 6 7 10 11 6 1 3 3 3 4 3 2 6 9 10 8 3 2 4 10 21 11 7 9 8 15 16 12 13 11 12 12 9 9 10 11 10 7 6 8 9 10 11 7 6 9 7 5 4 4 5 3 2 2 2 3 3 2 0 2 1 3 7 7 7 10 10 7 7 8 9 9 8 8 10 9 8 8 10
9 9 9 10 10 9 7 7 7 7 9 10 12 11 4 3 3 3 1 2 2 3 5 7 7 5 5 6 8 13 11 9 10 12 19 18 10 10 12 12 11 9 9 12 12 8 5 4 9 10 11 13 10 7 9 7 4 4 4 6 4 3 5 3 1 2 2 3 1 1 5 7 6 7 9 6 2 5 7 7 8 7 8 9 7 7 9 11
10 9 9 11 10 9 8 7 6 6 8 8 10 14 9 3 3 2 3 0 3 2 2 6 5 5 12 10 11 8 9 5 5 13 20 20 13 10 9 8 6 10 13 12 9 5 4 4 9 11 9 11 10 7 8 8 5 3 4 6 8 8 6 3 1 3 2 4 2 1 4 6 4 6 9 5 2 5 5 4 8 9 8 7 7 10 11 10
10 9 9 11 11 12 10 4 4 6 6 4 4 9 12 9 4 3 3 2 4 3 4 8 6 8 13 9 6 7 9 5 1 13 21 20 15 7 7 6 1 7 14 10 5 2 3 4 7 11 10 10 10 8 8 8 7 3 5 8 8 8 7 5 3 2 1 4 3 1 4 6 5 5 7 5 5 8 6 5 8 8 7 7 8 11 10 10
10 10 10 11 12 13 8 4 6 8 3 2 6 8 10 12 8 4 3 1 5 4 8 8 5 10 12 10 14 10 7 7 7 11 16 15 11 4 6 10 3 4 7 5 4 2 5 7 6 10 10 8 9 7 7 9 8 3 6 9 9 7 7 6 5 3 2 2 4 3 1 4 6 6 6 4 5 9 8 7 7 8 9 9 9 11 11 11
10 10 11 11 12 12 8 9 11 8 3 4 9 12 12 13 11 5 2 4 3 5 8 6 6 12 9 10 18 8 3 11 11 10 12 9 6 1 6 13 11 9 6 6 8 1 5 11 11 12 10 7 8 7 9 11 6 4 5 9 8 7 6 5 5 2 1 2 4 3 1 3 6 6 5 3 7 10 9 9 8 8 10 11 10 11 11 11
11 11 12 11 11 10 8 9 8 5 4 5 9 14 18 16 11 3 2 5 1 3 3 6 9 11 8 8 14 5 3 8 5 5 8 5 2 1 5 10 12 13 4 2 7 2 1 7 10 13 9 8 6 5 10 12 5 3 6 8 6 5 5 4 4 2 2 1 4 3 2 2 5 5 3 2 6 10 9 8 9 8 9 10 10 11 11 9
13 11 12 13 11 10 10 9 6 7 6 5 11 19 21 15 6 2 6 4 2 2 2 5 9 12 13 10 6 5 8 5 3 7 5 1 1 3 3 5 8 10 3 5 4 2 1 2 3 5 6 6 6 4 3 7 8 7 7 8 6 4 4 3 2 3 2 3 5 5 5 3 4 5 5 5 5 8 9 8 8 8 8 9 9 10 10 7
12 11 12 14 12 12 9 3 6 9 3 4 15 21 15 6 2 5 7 1 2 4 5 5 9 15 20 15 3 6 10 5 8 13 7 1 2 4 6 6 5 4 3 4 4 3 3 4 2 2 1 5 8 5 5 2 8 8 5 6 5 2 2 3 3 2 1 5 5 4 4 5 6 6 4 6 6 5 8 8 10 11 10 10 8 8 8 5
12 12 12 13 13 14 9 3 1 7 6 8 14 13 6 3 4 5 2 1 0 5 7 7 10 15 21 17 5 7 11 7 10 15 13 8 7 9 12 10 8 6 5 6 3 3 2 2 3 3 2 4 9 6 4 3 4 5 5 6 5 2 1 0 1 1 4 5 3 2 2 3 8 6 5 8 8 8 9 8 9 10 9 9 6 4 4 4
11 12 12 14 16 15 11 6 6 5 9 14 10 5 4 4 6 6 4 1 0 2 7 11 12 15 20 15 5 8 9 7 12 15 14 12 9 10 9 10 12 6 5 8 5 3 2 5 3 1 2 4 8 10 5 2 4 6 7 7 6 5 4 5 4 1 4 4 2 1 1 3 6 4 7 12 11 9 7 8 8 7 8 9 5 3 5 5
11 12 13 15 16 16 16 12 4 4 10 14 6 3 7 6 5 9 12 5 2 3 3 11 15 17 18 13 10 12 6 4 13 15 14 11 8 9 6 9 14 4 5 9 4 5 7 2 4 6 3 5 10 10 8 9 7 6 6 5 5 6 5 7 6 3 4 1 2 2 2 3 3 2 6 10 9 7 5 5 6 6 8 7 5 5 6 7
11 13 14 15 15 16 17 15 11 8 8 9 3 4 8 7 4 7 10 5 1 3 3 9 16 16 13 9 11 14 4 2 13 12 12 13 10 12 11 13 17 8 8 11 3 5 11 3 3 3 1 6 10 5 5 11 8 3 3 4 4 4 4 4 3 4 4 2 1 2 3 4 3 6 9 5 4 7 6 6 6 8 7 4 5 7 6 6
11 11 14 16 15 16 18 16 15 11 6 4 4 5 6 5 4 5 6 6 5 2 2 8 14 12 9 6 9 12 2 3 14 10 7 12 11 13 13 11 13 11 11 12 4 4 8 1 4 3 3 3 6 4 3 7 7 2 3 5 4 3 7 6 1 1 4 2 3 2 5 5 3 8 10 4 3 6 7 6 7 9 6 5 6 8 7 5
10 8 10 13 14 17 19 18 17 11 6 3 5 5 5 4 3 3 4 7 7 5 5 7 8 8 7 6 6 10 5 5 12 9 5 9 9 11 12 8 10 13 11 7 3 3 6 3 3 2 4 0 1 4 4 1 4 5 5 7 3 2 4 5 2 2 3 3 3 1 5 5 2 5 6 3 6 9 10 7 5 6 4 4 8 8 7 7
9 5 8 13 18 19 19 20 18 11 5 4 7 8 7 4 3 3 3 7 10 9 7 5 3 3 7 9 7 8 9 9 10 8 7 7 5 9 14 10 10 13 9 3 3 2 5 5 3 2 4 1 3 5 4 2 1 4 6 6 4 2 3 2 3 2 3 3 3 3 4 4 6 7 4 3 7 10 12 6 3 6 5 5 8 7 7 6
7 3 7 13 22 23 23 23 18 9 4 6 8 7 6 5 5 6 6 8 11 10 8 4 1 2 4 9 10 9 11 11 10 7 7 7 4 10 18 11 9 14 9 4 4 3 5 5 0 3 0 1 2 2 8 4 2 3 3 4 2 2 3 3 3 3 4 4 3 3 4 4 7 7 6 8 9 9 10 7 6 8 8 7 7 6 6 5
6 3 2 15 25 28 31 25 13 7 6 7 7 7 7 7 7 8 8 8 8 8 8 4 2 4 3 5 10 11 11 12 13 9 8 10 7 9 17 12 10 13 7 6 5 3 3 4 4 1 2 2 2 4 8 9 5 3 5 6 4 1 2 2 1 2 4 4 3 1 3 5 5 4 9 13 11 10 9 7 7 6 6 7 7 6 5 4
4 4 3 20 31 35 33 17 6 6 6 7 8 9 10 8 6 8 10 9 8 6 8 7 5 5 5 6 7 8 9 10 13 10 6 11 9 7 15 16 13 14 9 6 6 4 2 4 6 4 2 3 2 4 3 6 7 6 6 6 6 3 3 4 3 2 2 3 4 4 3 7 5 4 7 11 10 8 5 4 5 5 6 7 6 6 6 5
3 6 6 24 40 38 23 7 5 7 6 8 10 10 11 9 7 10 11 9 9 7 5 8 8 6 6 9 8 8 9 10 13 11 7 14 15 9 13 16 14 16 12 6 5 4 3 5 6 3 4 4 3 3 2 3 4 5 3 5 6 4 4 6 6 3 2 1 2 3 1 7 6 5 7 7 5 4 1 1 2 5 6 6 6 6 5 5
5 6 5 25 48 41 15 6 8 8 7 9 11 14 14 10 8 9 11 12 9 4 4 6 8 8 5 6 8 9 9 9 14 15 10 14 15 8 11 19 18 16 11 6 6 4 4 5 5 3 0 3 4 3 2 1 2 4 5 4 7 6 4 5 5 4 4 4 3 3 2 7 6 4 4 5 4 4 2 1 3 5 6 6 6 6 5 5
5 4 2 15 39 33 12 7 9 8 9 10 12 15 14 11 11 11 12 15 10 4 5 6 9 11 7 6 9 12 12 8 10 12 6 7 7 3 12 22 21 16 9 7 9 6 3 3 5 6 3 2 3 3 2 3 4 4 3 3 6 6 6 4 2 3 2 6 7 5 5 7 5 4 3 4 5 5 5 4 5 6 6 6 6 5 5 5
3 4 1 10 19 13 5 6 9 9 12 13 14 17 15 12 12 13 14 16 14 10 8 6 9 11 9 10 10 12 13 6 5 9 5 2 1 1 12 22 21 15 7 8 10 6 4 5 5 8 9 8 7 5 4 5 3 1 2 4 3 5 8 5 2 3 4 5 7 7 9 4 4 6 5 5 6 5 5 5 6 7 7 6 6 5 5 4
3 4 3 7 8 7 5 5 8 10 12 14 13 15 18 15 12 14 16 16 16 16 11 7 10 11 13 16 13 13 15 5 2 7 6 5 3 1 11 21 19 13 10 14 14 7 5 4 6 9 13 11 7 4 5 9 7 3 4 7 6 5 6 6 4 4 6 4 5 13 12 4 3 7 6 6 7 6 5 4 5 7 7 7 6 5 5 5
4 5 5 6 5 8 9 8 10 10 12 15 12 11 20 21 14 13 16 15 15 17 13 9 11 11 14 19 14 13 16 5 4 9 5 3 3 2 7 15 14 14 15 15 13 7 5 5 7 10 11 6 5 6 9 13 12 9 9 10 10 9 9 8 8 11 7 7 9 17 12 9 8 8 7 7 6 7 7 6 6 6 6 6 4 3 5 6
4 3 5 6 5 7 9 11 15 15 17 18 13 13 21 25 20 15 14 13 15 17 14 10 13 14 16 21 15 12 14 7 6 11 6 3 6 6 7 8 9 15 16 12 10 7 5 6 7 8 7 2 5 7 10 12 12 12 13 14 13 14 15 15 19 17 12 10 17 10 11 15 13 8 9 9 6 7 7 6 6 5 6 6 3 4 6 7
5 2 3 6 6 9 11 15 20 23 24 21 15 16 21 26 26 19 13 12 14 17 17 14 15 16 16 19 17 14 16 12 9 11 10 10 12 11 10 8 8 13 15 11 10 7 5 7 7 8 6 4 4 5 8 9 10 11 13 16 17 17 19 20 25 22 15 17 22 5 5 11 10 8 11 8 5 7 5 4 6 6 7 6 3 4 7 8
5 2 4 5 7 11 14 15 18 20 21 21 18 18 20 26 30 23 15 16 16 16 19 19 18 18 18 20 18 15 19 21 19 19 18 17 16 13 12 12 11 13 15 12 8 6 6 7 7 8 6 3 3 3 5 6 10 11 11 14 16 19 23 25 26 18 11 18 22 8 6 12 7 7 8 4 3 4 4 7 8 7 8 6 4 6 8 8
8 4 4 3 7 13 13 13 15 16 16 18 18 18 21 26 32 25 17 18 20 18 20 23 21 18 18 20 21 21 25 25 21 20 20 19 14 9 6 8 13 17 15 10 7 6 6 6 6 8 7 2 2 4 7 6 6 6 9 15 19 21 21 19 16 11 12 18 18 11 12 11 6 6 5 5 5 6 8 9 8 9 9 7 7 8 8 8
9 7 6 5 9 13 12 12 16 14 13 16 20 21 22 26 31 28 17 15 21 21 22 26 24 17 16 23 29 28 24 18 12 12 13 11 7 5 5 8 13 16 13 8 4 4 6 6 5 8 8 2 2 4 8 9 6 3 12 20 24 19 14 11 11 13 16 14 11 12 14 7 8 9 7 7 7 7 9 9 9 12 11 7 8 9 9 8
Wind_Direction
216 220 225 224 232 239 233 230 235 239 240 243 234 219 216 214 209 206 203 203 203 201 201 198 196 196 194 197 207 213 219 230 237 238 232 223 213 191 165 204 202 191 182 171 164 152 126 124 145 146 140 111 1 189 95 43 83 68 84 118 177 174 202 184 177 197 163 358 337 275 206 172 195 209 234 10 46 59 94 277 304 317 282 268 293 142 154 159
215 215 223 223 224 236 234 227 229 233 234 241 246 231 220 213 209 208 204 204 202 200 200 197 196 195 194 199 206 212 218 226 241 250 234 221 216 209 196 200 199 188 176 170 167 159 142 140 153 139 111 63 338 15 92 1 81 91 110 132 205 190 203 192 186 212 184 223 289 288 223 183 202 172 151 192 277 45 129 255 321 304 273 334 120 145 153 158
213 212 219 221 218 226 232 229 227 232 231 234 246 242 232 216 208 207 205 203 201 199 199 195 194 192 195 199 202 205 206 215 244 247 233 223 222 217 199 191 197 189 177 174 173 174 172 162 152 133 70 61 51 70 120 70 74 153 126 139 221 201 213 226 213 223 220 204 189 292 287 178 219 172 157 183 183 171 198 217 202 220 223 182 151 153 156 159
211 210 213 215 215 218 225 228 222 229 232 231 240 244 242 224 208 205 205 203 200 199 199 196 193 192 194 194 196 195 180 190 250 238 231 224 224 217 193 187 196 195 183 173 172 183 176 151 136 105 77 77 348 35 140 195 188 139 139 171 196 169 156 219 209 209 214 199 163 163 124 198 221 169 163 156 151 233 235 218 201 209 194 169 166 164 164 165
211 210 210 210 212 215 220 226 219 221 231 230 236 244 242 234 211 203 205 205 201 199 197 197 195 194 194 192 196 185 154 39 241 232 231 224 223 213 187 182 195 198 188 176 165 156 154 140 112 72 69 106 51 84 164 240 144 109 206 173 158 146 146 223 217 199 189 182 130 123 162 205 160 165 170 165 192 230 232 221 212 208 175 165 167 168 170 171
209 209 208 207 209 212 216 222 217 209 222 229 232 243 242 243 222 204 205 206 201 199 197 196 196 194 193 191 188 176 166 209 236 222 223 216 210 199 183 185 195 199 194 177 156 142 143 128 103 117 76 105 158 166 167 265 156 126 221 194 180 172 164 211 209 191 153 122 170 164 205 157 140 228 183 184 214 220 235 237 219 197 164 163 163 165 172 176
205 207 209 209 209 212 214 217 219 206 206 221 225 237 241 243 239 206 201 203 199 197 196 196 194 189 185 176 171 173 183 225 302 208 206 199 189 180 178 187 195 201 196 169 151 145 142 122 126 146 102 110 166 167 153 9 8 129 165 198 197 189 195 204 206 202 152 180 220 188 149 152 185 220 131 208 224 220 294 267 201 171 154 156 160 170 179 181
202 204 207 208 209 212 216 214 217 214 204 210 215 225 233 235 244 211 196 198 196 194 194 191 189 185 178 166 159 174 206 219 235 113 181 185 181 179 183 190 195 199 194 178 163 153 141 139 155 150 108 168 163 146 162 90 30 192 179 181 166 181 232 223 245 282 185 204 225 147 199 228 208 174 147 233 231 218 294 74 130 144 144 157 168 178 185 186
199 202 202 205 208 209 214 214 213 214 212 211 209 214 225 225 232 215 199 197 193 191 191 187 186 185 178 168 158 182 212 210 206 67 165 179 179 184 191 191 191 193 189 185 173 159 154 159 177 166 141 182 142 142 180 153 219 213 170 164 156 178 257 217 146 273 224 231 175 160 241 270 235 185 239 245 225 192 130 94 121 136 152 173 176 183 185 187
196 198 199 201 205 206 207 210 211 210 212 214 212 213 219 219 219 213 201 197 195 191 190 187 183 182 178 170 177 195 213 212 213 255 169 176 178 186 194 193 189 187 180 179 173 166 168 165 168 154 126 127 127 129 180 188 198 157 129 146 168 187 284 138 137 237 256 262 189 172 214 283 283 263 248 252 206 169 130 115 146 152 172 186 184 190 188 191
192 194 195 198 202 206 203 203 205 203 203 207 211 213 213 216 222 220 209 200 199 193 191 193 183 179 178 175 193 200 207 212 216 230 183 175 183 186 192 195 190 184 175 172 177 178 176 163 150 126 120 146 126 97 261 219 110 106 124 119 308 318 290 164 106 195 74 248 197 152 122 309 335 260 237 240 144 153 145 147 169 176 188 192 190 194 193 200
191 190 192 195 199 204 203 200 202 200 199 199 205 209 208 214 228 237 231 212 201 196 192 195 188 181 179 188 208 197 196 209 210 216 193 178 186 187 192 197 194 189 179 172 182 184 174 162 142 95 167 150 121 133 228 205 92 98 126 123 327 353 319 233 108 194 148 173 191 143 61 308 240 231 261 351 131 129 141 167 185 195 197 195 196 194 198 204
192 188 189 193 196 200 200 195 199 201 197 193 198 204 205 209 222 240 240 234 212 201 196 196 193 184 180 207 206 196 212 219 206 209 192 180 184 185 191 195 194 193 190 184 181 178 171 169 148 96 121 123 127 192 138 74 72 100 88 108 336 9 320 235 150 185 157 164 198 166 253 279 244 243 282 351 166 129 147 192 200 204 202 200 200 199 205 201
193 186 185 189 192 195 195 190 193 196 195 194 194 199 197 198 210 226 240 246 237 205 195 194 191 183 186 231 177 194 219 240 201 199 187 180 174 172 183 186 188 191 195 191 182 176 175 170 141 105 103 105 141 146 70 27 29 112 75 50 72 103 260 269 208 164 148 182 201 154 213 264 259 263 292 338 303 168 193 208 205 206 204 202 201 204 212 206
192 183 182 187 190 193 192 186 186 190 192 193 192 195 190 189 202 206 212 225 234 215 197 188 183 175 183 251 170 194 213 229 196 193 190 183 168 159 171 174 180 188 192 192 182 176 169 159 129 114 130 53 120 100 64 21 16 56 121 322 331 166 253 297 265 187 167 200 180 146 192 266 264 275 313 347 343 281 240 228 223 218 209 205 205 209 214 217
190 184 184 185 187 194 195 187 185 186 183 184 188 187 187 187 190 192 191 194 207 219 205 181 173 173 192 216 175 190 205 210 196 190 189 189 180 168 162 161 166 173 178 179 170 164 158 151 121 118 126 96 125 108 85 64 11 1 110 173 222 182 228 303 291 253 149 121 170 193 194 251 254 242 308 314 158 197 261 260 253 243 234 218 213 215 216 222
190 186 185 184 187 193 197 194 186 184 176 174 176 163 176 180 182 191 197 211 222 225 242 211 169 172 203 160 161 188 195 190 189 182 178 186 185 170 155 146 137 136 139 140 151 156 154 152 152 133 115 111 142 131 125 137 161 6 66 161 220 201 188 234 269 307 39 87 191 300 215 242 265 249 267 263 172 167 228 249 252 247 244 231 223 224 222 221
190 187 181 181 186 190 197 200 185 183 173 161 173 177 171 166 171 182 171 195 224 234 270 270 175 166 229 184 181 188 180 171 172 173 169 174 176 165 152 137 128 124 115 112 151 161 157 154 158 141 133 152 160 160 173 179 160 164 179 179 222 223 202 223 235 257 48 74 176 129 248 254 274 276 263 236 171 179 221 239 245 243 240 235 232 228 226 225
190 187 180 181 185 188 197 198 182 180 164 154 158 140 145 147 148 158 151 157 180 205 261 263 185 172 157 177 174 139 160 163 160 161 162 163 161 154 143 133 132 133 138 154 184 185 161 113 149 171 177 173 175 183 179 173 168 173 178 159 158 182 228 238 235 267 139 101 207 202 218 246 258 269 266 236 160 203 240 264 255 250 247 238 235 234 232 230
190 182 177 183 184 186 192 192 179 168 163 162 147 125 126 136 131 152 164 161 194 196 202 238 208 163 54 116 124 118 143 156 149 153 165 162 153 143 133 129 125 140 169 168 173 192 163 166 193 190 179 171 175 177 156 157 160 152 137 109 142 170 249 255 241 288 157 126 253 219 212 242 246 258 261 220 157 226 251 256 251 251 253 242 236 238 234 234
185 175 173 181 184 186 189 192 181 161 167 172 158 143 154 164 161 168 153 193 231 196 212 252 259 13 350 23 137 134 127 140 147 162 170 164 152 148 154 153 153 184 187 162 145 120 180 192 200 183 163 160 165 153 124 126 123 118 135 131 151 183 235 246 231 304 1 159 274 262 214 246 245 253 260 221 185 241 240 231 243 243 245 249 246 242 237 239
178 175 172 177 181 186 188 191 187 164 167 174 172 183 254 159 133 127 139 194 234 178 200 244 271 348 308 295 159 149 129 117 147 161 165 163 161 164 175 170 171 181 170 148 132 146 202 204 183 156 144 136 135 136 130 131 131 126 129 134 168 204 241 266 268 324 11 177 267 314 240 259 254 251 262 244 211 238 234 220 231 228 231 240 238 241 243 248
177 175 172 178 180 182 186 186 187 182 176 175 181 190 206 172 131 84 165 205 249 173 190 224 234 243 278 294 180 158 146 156 161 172 170 167 173 169 162 171 177 161 156 173 169 169 195 198 161 146 142 139 138 144 139 130 139 146 130 142 189 201 181 248 282 314 9 106 257 279 285 274 263 257 262 248 221 239 242 229 235 226 226 236 237 241 240 240
171 169 170 174 173 175 180 184 187 195 195 190 197 195 160 160 200 7 64 203 248 181 172 183 197 222 208 244 228 174 164 173 167 173 175 170 164 157 159 166 163 153 171 188 181 166 159 157 147 144 152 154 150 154 149 139 154 182 171 160 167 176 183 199 267 330 350 340 333 14 311 279 246 247 253 249 220 250 253 246 254 247 234 244 262 260 240 235
166 167 168 167 170 173 171 177 188 200 201 197 209 210 200 192 240 318 62 88 247 205 130 150 157 216 206 227 257 200 158 179 182 167 173 174 163 150 156 160 151 167 179 179 173 157 137 151 143 141 155 154 149 164 166 154 150 188 219 183 169 172 179 183 102 41 11 307 318 66 276 271 263 252 249 256 261 250 257 250 252 254 243 240 254 254 246 243
163 166 167 168 173 176 171 166 188 194 198 197 199 206 209 208 215 204 129 30 262 210 150 152 149 193 192 195 225 175 156 201 175 148 167 177 175 162 153 154 92 173 174 165 162 163 155 177 152 147 157 155 159 182 186 162 139 184 225 182 164 151 142 149 144 106 181 245 298 78 221 266 305 276 250 252 256 257 264 260 254 259 255 235 233 244 244 245
164 167 170 172 176 178 169 126 156 171 168 207 185 174 190 193 186 183 147 243 245 168 144 157 153 173 178 171 172 170 169 161 106 143 174 181 186 199 163 164 146 162 170 153 171 194 151 160 154 146 149 156 172 189 191 161 139 211 218 161 144 132 139 143 123 124 221 248 324 16 156 263 283 263 249 236 256 275 276 267 260 252 253 246 236 241 240 239
165 170 175 176 180 178 156 135 150 166 148 108 150 165 173 171 162 145 145 218 211 119 141 156 141 156 157 162 173 181 142 142 138 166 175 176 192 211 172 178 166 156 169 177 183 197 137 165 171 157 154 179 185 173 167 152 144 231 199 145 139 132 140 130 106 115 349 7 305 318 111 249 265 270 288 272 248 261 265 260 255 242 243 244 240 243 240 240
170 175 179 179 181 184 187 180 159 142 154 131 137 162 163 150 138 116 232 220 137 67 158 149 142 147 132 161 179 175 115 146 152 148 145 165 216 45 169 176 152 143 136 184 169 149 165 181 171 156 165 193 171 139 161 157 150 199 135 107 97 91 94 93 108 120 40 351 243 225 177 243 270 261 269 290 246 242 246 252 251 242 238 238 241 246 243 240
178 176 179 183 183 191 211 224 192 133 121 156 161 157 150 138 124 190 217 214 81 77 164 153 157 145 144 172 186 155 157 152 111 117 116 152 32 40 95 85 102 132 93 31 103 133 350 80 137 156 177 178 123 78 154 150 137 134 108 88 76 59 59 63 76 86 65 270 246 214 183 182 277 265 215 216 223 214 219 234 243 244 243 239 237 241 243 242
184 179 184 189 192 198 201 242 219 196 165 158 160 154 145 128 150 207 208 248 45 158 156 155 156 144 155 172 176 169 167 125 132 145 140 109 96 118 126 91 62 98 90 69 72 26 57 106 192 256 187 131 106 72 5 74 138 126 103 117 108 54 46 42 15 60 191 253 258 244 185 169 235 257 226 239 252 225 214 218 227 229 233 236 233 237 246 250
189 187 191 193 198 202 187 88 152 207 203 170 155 151 152 157 193 218 226 41 189 182 156 150 153 151 162 164 154 178 162 137 160 159 156 163 161 166 167 165 155 130 153 170 137 51 72 177 243 330 282 158 128 122 20 9 152 126 119 142 131 108 103 109 274 208 235 246 247 238 161 200 241 246 245 256 260 246 225 217 225 228 231 238 236 243 260 263
195 197 199 202 207 205 188 141 92 113 164 163 151 154 183 195 200 207 211 179 348 197 156 151 154 155 159 155 147 174 159 157 173 162 161 168 172 180 176 162 156 141 159 163 131 99 55 316 296 57 278 208 157 159 161 177 174 152 150 156 154 147 154 200 206 231 251 246 265 245 171 256 276 270 242 242 243 243 233 226 233 237 245 255 258 267 279 276
199 205 208 211 213 212 207 201 176 128 153 153 147 192 196 205 192 186 204 211 10 309 187 150 150 155 162 162 159 163 149 173 177 164 160 165 176 184 163 164 174 140 110 150 148 154 157 263 229 179 205 197 178 178 162 146 156 173 162 147 167 170 171 191 187 192 214 215 300 270 201 213 223 265 247 238 251 273 271 251 253 253 253 267 291 290 279 275
205 211 219 221 217 216 216 215 219 212 166 148 162 217 204 205 180 182 205 198 116 290 255 154 151 156 167 167 165 170 150 177 180 168 162 168 179 184 174 180 185 161 133 162 177 171 171 200 266 230 251 173 174 180 127 132 149 203 152 128 190 189 148 155 175 170 151 121 250 223 233 220 204 276 273 246 264 285 275 268 267 260 263 294 296 276 259 252
212 215 224 223 215 214 213 213 217 208 164 150 205 219 221 220 192 184 192 177 167 193 197 169 159 157 165 156 172 186 174 145 173 168 170 178 183 189 184 183 183 174 164 164 144 164 175 199 331 340 20 143 170 163 127 146 156 150 145 177 209 154 112 116 170 55 97 166 237 200 250 283 321 286 277 255 267 287 276 262 253 254 279 314 284 272 267 258
218 222 227 221 209 208 210 211 210 192 150 177 222 223 237 241 222 211 182 161 151 153 179 185 170 163 162 144 169 184 157 138 169 167 166 182 191 193 188 185 183 187 188 167 130 184 158 103 347 24 95 21 235 127 94 66 143 139 178 197 170 84 92 109 129 25 74 204 265 245 244 279 283 263 293 282 238 257 261 250 256 278 299 280 261 265 272 271
211 223 247 225 206 203 203 201 195 174 145 200 227 238 240 230 217 235 206 157 148 169 197 202 188 173 161 158 161 173 168 160 167 169 161 176 209 190 183 188 186 190 199 142 102 171 129 98 340 341 128 237 337 116 127 338 21 150 184 183 134 156 213 136 144 162 149 200 275 303 282 264 213 223 301 280 221 239 255 247 244 268 260 245 256 266 272 276
191 232 266 208 195 193 184 181 180 168 176 204 214 236 238 227 218 225 222 180 161 175 201 227 219 162 173 170 153 160 183 174 160 164 168 175 207 190 187 190 180 186 188 119 132 162 110 111 240 324 114 165 24 163 184 193 14 55 137 169 142 154 187 167 160 162 158 185 235 308 319 268 226 210 212 229 226 228 242 242 229 241 240 236 248 260 269 282
170 251 248 162 177 180 167 165 171 173 198 208 210 227 229 231 225 222 232 216 184 175 191 227 212 150 167 177 160 168 186 177 167 172 181 179 173 183 193 192 172 176 158 89 130 145 81 115 143 11 321 176 177 225 194 173 155 133 154 182 193 111 125 161 160 122 134 161 186 239 287 265 252 206 196 216 229 221 214 223 239 254 257 245 243 250 260 274
149 247 174 147 163 165 156 157 178 178 195 211 216 231 232 232 219 216 231 239 235 208 184 195 199 164 151 164 178 182 173 170 177 179 178 180 176 188 197 189 166 160 143 105 144 156 93 115 131 142 182 179 226 270 199 169 165 158 168 185 179 138 117 159 207 209 116 131 162 171 248 268 255 210 203 210 222 230 203 189 236 254 245 239 241 242 244 254
166 230 166 150 159 156 150 167 181 175 204 207 206 220 225 229 221 211 212 218 238 241 194 191 193 180 168 168 178 184 169 168 181 184 183 187 194 204 188 171 153 157 156 127 143 151 103 106 110 134 184 205 264 286 215 193 150 139 188 192 166 157 146 164 205 206 118 131 150 125 248 276 261 222 223 226 239 276 309 108 265 261 246 245 252 251 246 250
210 221 137 152 160 154 150 203 178 180 212 204 209 218 218 225 221 209 201 200 216 229 200 198 183 185 207 179 169 177 174 175 187 190 187 185 195 210 172 157 149 157 158 133 149 149 96 101 99 89 337 308 326 353 4 319 134 169 230 194 165 186 161 143 185 171 156 198 161 83 276 265 269 255 245 261 277 280 264 201 242 262 273 270 264 272 276 272
215 221 45 165 168 158 151 194 181 190 204 198 213 220 222 230 219 208 204 200 201 196 198 201 180 184 197 174 172 182 178 181 200 203 195 180 198 201 160 157 153 161 169 160 169 162 107 134 131 117 111 1 346 340 296 247 203 196 216 161 169 175 126 105 155 126 167 207 158 143 238 249 279 315 320 290 273 264 254 231 219 236 263 266 263 275 277 282
207 216 172 185 188 180 176 189 179 188 197 197 209 212 215 227 223 216 212 205 201 194 196 207 195 189 177 165 176 189 187 183 189 195 181 139 226 177 158 160 160 168 166 140 148 132 112 159 151 142 162 179 190 206 203 187 182 182 125 116 142 153 142 151 137 122 231 220 156 186 230 249 307 310 316 303 284 274 256 240 234 236 248 261 266 275 283 293
194 230 182 168 192 212 228 216 194 192 194 195 204 209 208 213 218 214 212 212 206 195 193 204 201 195 180 173 174 186 197 204 110 170 168 147 170 226 169 165 163 166 150 134 136 111 95 164 183 175 182 184 174 167 129 123 130 165 155 138 138 148 155 145 129 193 215 147 171 226 226 207 262 262 276 291 279 272 268 258 254 250 250 256 255 267 292 288
198 222 190 165 182 199 209 220 210 205 202 196 196 202 204 208 213 208 208 214 206 195 198 204 200 202 187 176 174 182 187 182 117 154 159 147 135 71 160 165 159 155 145 139 145 120 99 180 197 183 184 173 140 155 144 135 152 169 156 155 162 160 157 161 198 216 161 122 234 239 213 204 230 233 247 265 262 269 278 260 245 248 253 253 257 294 305 286
213 216 177 174 194 205 203 203 202 208 212 206 202 200 201 204 206 203 202 210 205 195 199 206 204 211 195 176 173 176 172 164 158 161 153 144 136 118 146 172 173 160 147 149 170 149 130 191 189 163 167 108 99 157 157 147 161 165 159 168 171 169 174 190 216 213 159 181 238 221 170 209 221 202 225 240 227 232 243 241 244 261 263 263 298 325 297 280
211 232 170 175 204 221 217 204 198 204 210 209 207 206 202 201 203 202 192 197 206 199 197 203 200 206 207 187 176 175 172 169 170 170 165 160 156 152 155 170 196 177 158 161 180 166 157 187 167 142 143 62 57 150 156 146 155 163 173 177 171 178 190 202 219 215 184 214 237 198 138 236 224 191 216 223 211 226 243 269 274 271 259 258 288 292 273 270
203 204 179 182 212 224 227 218 203 203 208 207 206 207 202 199 200 200 191 190 197 194 196 205 197 193 206 201 187 186 186 182 179 177 172 163 163 172 174 172 178 174 166 167 177 189 196 179 147 131 127 53 22 92 108 132 157 168 187 189 183 191 200 209 221 214 191 229 241 247 291 272 232 200 224 213 193 239 266 264 260 256 248 238 232 251 257 260
219 217 193 203 230 223 223 224 212 206 206 205 206 205 202 200 197 195 195 196 194 187 189 199 197 192 199 202 197 197 195 190 183 175 169 165 165 171 177 169 163 161 166 169 165 179 189 167 140 138 147 211 322 88 95 97 121 158 204 207 202 202 205 215 222 202 198 227 234 239 262 259 193 179 232 243 220 232 252 253 256 258 245 214 204 230 240 244
217 219 208 220 244 232 221 219 216 212 206 200 201 202 201 199 193 190 193 198 197 192 187 190 194 189 190 202 206 203 192 180 161 148 154 152 138 118 105 140 160 161 158 154 133 140 150 140 145 157 159 215 302 131 121 97 92 212 228 210 204 205 209 222 229 213 210 214 208 219 237 223 149 161 199 238 240 243 256 252 247 250 240 205 203 225 234 238